OneWeb SL0372

operational
NORAD ID: 49298 Int'l Des: 2021-090 Owner: ONEWEBN Country: UK Constellation: oneweb
LEOCIRCULARPOLARONEWEB_TYPE

OneWeb SL0372について

説明を読み込み中...

リアルタイム位置

3D地球を読み込み中...

次回通過

高度履歴

Altitude vs Time

uPlot chart will show altitude changes over time

軌道要素

1 49298U 21090V 26035.43542580 .00000116 00000-0 25434-3 0 9990
2 49298 87.9220 300.9327 0001529 77.0447 283.0857 13.20774744212313
Epoch: Feb 4, 2026 • Age: 9 hours

現在のステータス

高度 1211.7 km
速度 7.25 km/s
衛星直下点 -87.88°S, 161.9°E
打ち上げ日 Oct 14, 2021
運用期間 4.3 years
タイプ internet

技術仕様

分類 Payload
質量 148.00 kg
乾燥質量 140.00 kg
総質量 148.00 kg
長さ 1.30 m
直径 1.00 m
スパン 5.00 m
形状 Trapezoid+2 pan
製造者 ONEWUS
バスタイプ ARROW
フェーズステータス In Orbit
所有者/国 ONEWEBN/UK

大規模コンステレーション

Loading constellations...